Location: Unspecified
(0.0000°N, 0.0000°E)
Time: 22:55:56
(UTC+00:00)

Explorer 11/Cluster Stage 4 - All Passes

Search period start: 19 November 2019 00:00
Search period end: 29 November 2019 00:00
Orbit: 467 x 1259 km, 28.8° (Epoch: 19 November)

Date Brightness Start Highest point End Pass type
(mag) Time Alt. Az. Time Alt. Az. Time Alt. Az.
19 Nov - 01:31:15 10° NNW 01:37:50 26° NNE 01:44:18 10° E visible
19 Nov - 03:19:21 10° NW 03:27:38 75° NNE 03:35:03 10° ESE visible
19 Nov - 05:09:56 10° W 05:16:53 34° SSW 05:22:53 10° SSE visible
19 Nov - 14:23:36 10° SSW 14:26:31 23° SSE 14:29:36 10° E daylight
19 Nov - 16:11:03 10° W 16:14:40 41° NNW 16:18:53 10° NE daylight
19 Nov - 23:35:36 10° NNE 23:36:44 10° NNE 23:37:53 10° NNE night (unlit)
20 Nov - 01:20:09 10° NNW 01:27:04 30° NNE 01:34:00 10° E visible
20 Nov - 03:08:27 10° WNW 03:16:47 87° NNE 03:24:24 10° ESE visible
20 Nov - 04:59:22 10° W 05:06:06 30° SSW 05:12:04 10° SSE visible
20 Nov - 14:12:48 10° SSW 14:16:01 29° SSE 14:19:20 10° E daylight
20 Nov - 16:00:51 10° W 16:04:11 30° NNW 16:07:57 10° NE daylight
20 Nov - 23:23:38 10° N 23:26:09 12° NNE 23:28:45 10° NE night (unlit)
21 Nov - 01:09:07 10° NW 01:16:17 35° NNE 01:23:34 10° E visible
21 Nov - 02:57:36 10° WNW 03:05:55 82° SSW 03:13:42 10° SE visible
21 Nov - 04:48:52 10° W 04:55:20 26° SSW 05:01:11 10° SSE visible
21 Nov - 14:02:04 10° SW 14:05:30 40° SSE 14:09:00 10° ENE daylight
21 Nov - 15:50:45 10° W 15:53:43 22° NNW 15:56:57 10° NNE daylight
21 Nov - 23:12:14 10° N 23:15:33 13° NNE 23:19:01 10° NE night (unlit)
22 Nov - 00:58:08 10° NW 01:05:28 40° NNE 01:13:04 10° E visible
22 Nov - 02:46:49 10° WNW 02:55:03 71° SSW 03:02:55 10° SE visible
22 Nov - 04:38:28 10° WSW 04:44:35 23° SSW 04:50:14 10° SSE visible
22 Nov - 13:51:23 10° SW 13:55:01 56° SSE 13:58:35 10° ENE daylight
22 Nov - 15:40:49 10° WNW 15:43:15 17° NNW 15:45:50 10° NNE daylight
22 Nov - 23:01:00 10° N 23:04:54 15° NNE 23:09:04 10° ENE night (unlit)
23 Nov - 00:47:13 10° NW 00:54:37 46° NNE 01:02:29 10° ESE visible
23 Nov - 02:36:05 10° WNW 02:44:11 61° SSW 02:52:05 10° SE visible
23 Nov - 04:28:09 10° WSW 04:33:52 21° SSW 04:39:14 10° SSE visible
23 Nov - 11:54:34 10° S 11:56:02 12° SSE 11:57:27 10° SE daylight
23 Nov - 13:40:46 10° WSW 13:44:30 80° SSE 13:48:07 10° ENE daylight
23 Nov - 15:31:09 10° NW 15:32:47 12° NNW 15:34:27 10° N daylight
23 Nov - 22:49:54 10° N 22:54:14 17° NNE 22:58:57 10° ENE night (unlit)
24 Nov - 00:36:22 10° NW 00:43:46 54° NNE 00:51:49 10° ESE visible
24 Nov - 02:25:26 10° WNW 02:33:19 53° SSW 02:41:12 10° SE visible
24 Nov - 04:17:55 10° WSW 04:23:09 18° SSW 04:28:09 10° SSE visible
24 Nov - 11:42:56 10° SSW 11:45:35 16° SSE 11:48:00 10° ESE daylight
24 Nov - 13:30:11 10° WSW 13:34:01 73° NNW 13:37:36 10° NE daylight
24 Nov - 22:38:53 10° NNW 22:43:33 19° NNE 22:48:42 10° ENE night (unlit)
25 Nov - 00:25:33 10° NW 00:32:55 62° NNE 00:41:05 10° ESE night (unlit)
25 Nov - 02:14:51 10° W 02:22:28 46° SSW 02:30:14 10° SE visible
25 Nov - 04:07:50 10° WSW 04:12:29 16° SSW 04:16:59 10° S visible
25 Nov - 11:31:40 10° SSW 11:35:07 21° SSE 11:38:10 10° ESE daylight
25 Nov - 13:19:38 10° WSW 13:23:30 52° NNW 13:27:02 10° NE daylight
25 Nov - 22:27:56 10° NNW 22:32:50 22° NNE 22:38:22 10° ENE night (unlit)
26 Nov - 00:14:49 10° NW 00:22:04 73° NNE 00:30:17 10° ESE night (unlit)
26 Nov - 02:04:21 10° W 02:11:39 39° SSW 02:19:13 10° SE visible
26 Nov - 03:57:54 10° SW 04:01:50 14° SSW 04:05:44 10° S visible
26 Nov - 11:20:33 10° SSW 11:24:39 28° SSE 11:28:09 10° E daylight
26 Nov - 13:09:09 10° W 13:12:58 38° NNW 13:16:24 10° NE daylight
26 Nov - 22:17:02 10° NNW 22:22:06 24° NNE 22:27:56 10° E night (unlit)
27 Nov - 00:04:08 10° WNW 00:11:13 84° NNE 00:19:26 10° ESE night (unlit)
27 Nov - 01:53:57 10° W 02:00:51 34° SSW 02:08:09 10° SE visible
27 Nov - 03:48:10 10° SW 03:51:14 12° SSW 03:54:18 10° S visible
27 Nov - 09:24:07 10° S 09:24:47 10° SSE 09:25:27 10° SSE daylight
27 Nov - 11:09:30 10° SW 11:14:09 37° SSE 11:18:01 10° E daylight
27 Nov - 12:58:43 10° W 13:02:25 29° NNW 13:05:43 10° NNE daylight
27 Nov - 22:06:13 10° NNW 22:11:22 28° NNE 22:17:26 10° E night (unlit)
27 Nov - 23:53:31 10° WNW 00:00:23 84° SSW 00:08:30 10° ESE night (unlit)
28 Nov - 01:43:38 10° W 01:50:06 29° SSW 01:57:01 10° SSE visible
28 Nov - 03:38:51 10° SSW 03:40:40 11° SSW 03:42:29 10° S visible
28 Nov - 09:11:30 10° S 09:14:21 13° SSE 09:16:56 10° SE daylight
28 Nov - 10:58:31 10° SW 11:03:38 49° SSE 11:07:46 10° ENE daylight
28 Nov - 12:48:21 10° W 12:51:52 23° NNW 12:54:58 10° NNE daylight
28 Nov - 21:55:26 10° NNW 22:00:37 32° NNE 22:06:51 10° E night (unlit)
28 Nov - 23:42:58 10° WNW 23:49:35 71° SSW 23:57:31 10° SE night (unlit)
